METEOR 2-4

导读

METEOR 2-4是苏联解体后独立国家联合体(CIS)继承航天遗产发射的第二代“流星”(Meteor)极轨气象卫星,于1979年3月1日发射入轨,运行在约900公里高度的极轨轨道。它属于苏联发展的第二代气象卫星,主要承担全球气象观测任务,获取云图与大气环境数据,为气象预报、气候研究提供支撑,是“流星”系列气象卫星组网运行的重要组成部分。

Basic Information
目录编号:
11288
目录名称:
METEOR 2-4
国际标识:
1979-021A
轨道中心:
EARTH
卫星名称:
METEOR 2-4
卫星全名:
--
卫星状态:
在轨 (已飞行17362 天)
发射日期:
1979-03-01 UTC
国别 :
俄罗斯(独联体) (CIS)
星等 :
--
This satellite is enrolled in the Space Conjunction Data Service (SCDS) and the current flight risk assessment level is: High Risk
Orbit Information
数据来源 国际轨道数据 AOE轨道数据
星历时间 2026-09-11T20:17:36+0800
15小时前
查看轨道信息
2026-09-10T17:00:00+0800
1天前
查看轨道信息
半长轴 7229.51km 7229.511km
偏心率 0.0024431 0.0024421
轨道倾角 81.215° 81.215°
近地点辐角 52.374° 55.666°
升交点赤经 53.464° 54.579°
平近点角 307.965° 285.759°
近地点 833.71km 833.718km
远地点 869.036km 869.03km
周期 101.958分钟 101.958分钟
每日圈数 14.123408 14.123404
Detailed Information
使用方式:
暂无
2D Orbit Map
3D Orbit Map
Orbit Altitude Analysis Chart
Orbit Inclination Analysis Chart
Orbit Comprehensive Analysis Chart
View Comprehensive Chart
Miss Distance Evolution Trend with All Objects
Collision Probability Evolution Trend with All Objects